RESULTATS 19KM HOMME TRAIL DES CISTERCIENS 2017
                 
Classement Dossard Temps Vitesse Nom Prenom Pseudo Sexe sen/vet
1 151 1:23:57 13,6 Boughrad Mohamed 0 Homme senior
2 318 1:24:49 13,4 Perzyna Christophe Chris Homme senior
3 304 1:25:25 13,3 Oldenhove Xavier 0 Homme veteran
4 370 1:26:36 13,2 MESSORI MIRCO MIRK Homme veteran
5 805 1:29:07 12,8 Sips Jan 0 Homme senior
6 197 1:29:08 12,8 Meunier Hugo Hugo Homme senior
7 175 1:30:08 12,6 Hofmans Benjamin Benjam' Homme senior
8 344 1:30:53 12,5 Alsteen Damien Dam Homme senior
9 75 1:31:32 12,5 Bailleux Antoine 0 Homme senior
10 291 1:33:20 12,2 Ratinckx Jean-philippe Jp Homme senior
11 85 1:34:10 12,1 Vanhorick Bruno Bruno Homme senior
12 267 1:34:15 12,1 Vanmechelen Filip 0 Homme veteran
13 234 1:34:41 12,0 LEPLAE Charles Bono Homme senior
14 274 1:34:51 12,0 De Bruyn Jérôme 0 Homme senior
15 139 1:34:52 12,0 Delestree Vincent Le Coach Homme veteran
16 185 1:35:28 11,9 Rigault Mathieu Matt10 Homme senior
17 69 1:35:35 11,9 Lippolis Adrien adrien.l Homme senior
18 111 1:35:45 11,9 desmet claude 0 Homme veteran
19 65 1:36:27 11,8 Ponti Angelo Polegna Homme veteran
20 152 1:36:45 11,8 Ieven Cédric Ced Homme senior
21 279 1:38:07 11,6 SANA Florent Florent Homme senior
22 108 1:39:38 11,4 Mol Serge smol Homme veteran
23 96 1:41:07 11,3 Thornton Geoffrey 0 Homme senior
24 187 1:41:21 11,2 DUMAS Bastien Batt Homme senior
25 253 1:41:33 11,2 Manssens Gilles 0 Homme senior
26 219 1:41:37 11,2 nussbaum benoit benoit Homme senior
27 198 1:41:52 11,2 Pinsard Victor 0 Homme senior
28 168 1:42:11 11,2 Bulteau Benoît 0 Homme senior
29 348 1:42:30 11,1 Storm Jean-Paul jpaul Homme veteran
30 365 1:43:00 11,1 Depouille Henri-François 0 Homme senior
31 349 1:43:07 11,1 Pigeolet François Franz Homme veteran
32 256 1:43:15 11,0 lambert germain Germain Homme senior
33 149 1:43:31 11,0 De Backer Yannick 0 Homme senior
34 331 1:43:36 11,0 Venot Pierre 0 Homme veteran
35 355 1:43:44 11,0 Froidmont Loïc lfroidmo Homme senior
36 322 1:43:58 11,0 hardas vincent bé rade el madelaine Homme senior
37 37 1:44:18 10,9 POTIER FREDERIC 0 Homme veteran
38 25 1:44:19 10,9 Cotteels Maxence Max(ence) Homme senior
39 356 1:44:48 10,9 Blampain Nicolas Nicolas Homme senior
40 287 1:45:24 10,8 Mehoudens alain 0 Homme veteran
41 278 1:45:25 10,8 Delfosse Vincent 0 Homme veteran
42 325 1:46:07 10,7 Charloteaux Nicolas Nico Homme senior
43 21 1:46:25 10,7 Durviaux Serge 0 Homme veteran
44 353 1:46:39 10,7 Mairiaux Eric 0 Homme veteran
45 101 1:46:59 10,7 Desquesnes Vincent 0 Homme veteran
46 385 1:47:10 10,6 Van Rechem Francois Le Rat Homme veteran
47 199 1:47:14 10,6 DESMET Alain PINGOUIN Homme veteran
48 53 1:47:17 10,6 Scoubeau Olivier m'biau Homme veteran
49 155 1:47:36 10,6 Vanden Camp Laurent 0 Homme senior
50 156 1:47:36 10,6 Vanden Camp Christophe 0 Homme senior
51 812 1:48:01 10,6 Goudsmedt Arnaud 0 Homme senior
52 328 1:48:10 10,5 Meurice Philippe 0 Homme senior
53 202 1:48:17 10,5 Thiebauld Charles-Dominique Shadow Homme senior
54 87 1:48:18 10,5 Dreze Christian 0 Homme veteran
55 71 1:48:18 10,5 Jaumain Bernard 0 Homme veteran
56 218 1:48:28 10,5 CAUPAIN FABIAN 0 Homme veteran
57 386 1:48:29 10,5 Schiltz Frédéric 0 Homme veteran
58 383 1:48:43 10,5 De Vleeschouwer Christophe 0 Homme veteran
59 255 1:49:05 10,4 Renoirte Charles 0 Homme veteran
60 66 1:49:09 10,4 alleaume christophe 0 Homme veteran
61 136 1:49:27 10,4 Decreton Cédric 0 Homme veteran
62 72 1:49:43 10,4 Vermeersch Olivier Hugoli Homme senior
63 389 1:49:47 10,4 Coquyt Jan 0 Homme veteran
64 239 1:50:31 10,3 Londot Claude 0 Homme veteran
65 48 1:50:39 10,3 Albrecht Frédéric Fredje Homme veteran
66 286 1:50:44 10,3 DE WAHA Pierre 0 Homme veteran
67 397 1:51:15 10,2 Bachmann Marc 0 Homme veteran
68 277 1:51:17 10,2 Delfosse Gilles 0 Homme senior
69 241 1:51:18 10,2 Londot Sebastien 0 Homme senior
70 250 1:51:56 10,2 Chrétien philippe 0 Homme veteran
71 201 1:52:23 10,1 GILLAIN Michel 0 Homme veteran
72 54 1:53:01 10,1 stockmans thibaut 0 Homme senior
73 270 1:53:14 10,1 Jacquemin Frederic XIII Homme veteran
74 282 1:53:26 10,1 van de leest wout 0 Homme veteran
75 320 1:53:57 10,0 Perl Frederic Fred Homme veteran
76 326 1:53:57 10,0 Tissot Matthieu Matt Villers Homme senior
77 811 1:53:58 10,0 Perl Simon 0 Homme senior
78 359 1:53:59 10,0 Rogie Thierry Capi Homme senior
79 810 1:54:01 10,0 Martinage Lionel 0 Homme veteran
80 314 1:54:04 10,0 Hedges Gaetan 0 Homme senior
81 221 1:54:08 10,0 HOGGER Robin Grand Schtroumpf Homme veteran
82 207 1:54:18 10,0 De Nys Laurent 0 Homme veteran
83 34 1:55:01 9,9 GILBERT Philippe 0 Homme veteran
84 52 1:55:41 9,9 PISCAGLIA François 0 Homme veteran
85 12 1:55:44 9,8 Schaeck Benoît Ben Homme veteran
86 181 1:56:05 9,8 Bolyn Denis 0 Homme senior
87 329 1:56:09 9,8 Quiquempoix Michel 0 Homme veteran
88 51 1:57:07 9,7 De Coster Arnaud Arnaud Homme senior
89 276 1:57:13 9,7 Gerard Alain 0 Homme veteran
90 264 1:57:31 9,7 Holoffe Didier Lo Homme veteran
91 362 1:57:38 9,7 Rancan Marco Marco Homme senior
92 103 1:57:41 9,7 Defalque Alban 0 Homme veteran
93 260 1:58:11 9,6 Valcke Alain Cack Homme veteran
94 368 1:58:41 9,6 Borremans Frédéric 0 Homme veteran
95 214 1:58:41 9,6 Florins Cédric 0 Homme senior
96 189 1:58:42 9,6 Florins Arnaud 0 Homme senior
97 263 1:58:54 9,6 Heymans Stéphane Stef Homme veteran
98 337 1:59:10 9,6 Courtin Bruno 0 Homme veteran
99 154 1:59:25 9,5 Vanhoolandt Cédric 0 Homme senior
100 244 1:59:25 9,5 willame alain trepide Homme veteran
101 183 1:59:34 9,5 DALCQ Jean-Claude 0 Homme veteran
102 292 1:59:57 9,5 Chevalier Jean Jicé Homme veteran
103 340 2:00:07 9,5 de Smet Dimitri Dim Homme senior
104 333 2:00:35 9,5 schmitt simon simonS Homme veteran
105 194 2:00:43 9,4 Darge Olivier OliDa Homme veteran
106 224 2:00:46 9,4 Michel Olivier 0 Homme senior
107 170 2:00:53 9,4 WILMET Thomas 0 Homme veteran
108 808 2:00:57 9,4 Wronikowski Gregory Wroni Homme veteran
109 246 2:00:57 9,4 Verdonckt Jean-Christophe 0 Homme veteran
110 299 2:01:33 9,4 Bertrand Bruno 0 Homme veteran
111 18 2:01:35 9,4 Vanden Bossche Thierry Thierryvdb Homme veteran
112 399 2:01:40 9,4 Vandenheede Frederic Fred Homme veteran
113 336 2:01:48 9,4 GILLIO Xavier Xav Homme senior
114 140 2:02:23 9,3 Brasseur Paul 0 Homme veteran
115 98 2:02:29 9,3 Monteyne Charles Charlou Homme veteran
116 300 2:02:38 9,3 VANDERLINDEN THIERRY 0 Homme veteran
117 119 2:02:52 9,3 Dorval Martin standard1994 Homme senior
118 232 2:03:39 9,2 verbeeren philip 0 Homme veteran
119 343 2:03:40 9,2 Grinnell Guy 0 Homme senior
120 316 2:03:48 9,2 Brackeva Olivier Oli B Homme veteran
121 319 2:04:28 9,2 Gilon Adrien 0 Homme senior
122 341 2:05:24 9,1 Dacy Bruno 0 Homme veteran
123 8 2:05:25 9,1 Corbisier Arnaud 0 Homme veteran
124 172 2:05:38 9,1 Daeleman Guy 0 Homme senior
125 29 2:05:39 9,1 Brems jean-Hugues 0 Homme veteran
126 310 2:06:37 9,0 Gowie Christian 0 Homme veteran
127 106 2:06:52 9,0 Masse Christophe 0 Homme veteran
128 204 2:06:57 9,0 De Guchteneere Raoul 0 Homme veteran
129 67 2:07:17 9,0 Zadow Matthew mzadow Homme veteran
130 24 2:07:33 8,9 Wauters Dominique Dom Homme veteran
131 379 2:07:53 8,9 Cuvellier Simon gonz Homme senior
132 327 2:08:01 8,9 Degraux Fabrice fdex Homme veteran
133 338 2:08:12 8,9 GIGOT Michel Marius 0 Homme veteran
134 377 2:09:03 8,8 poleur francois 0 Homme senior
135 142 2:09:03 8,8 Brams Hugues 0 Homme veteran
136 243 2:09:10 8,8 Cleppe Vincent 0 Homme veteran
137 46 2:09:15 8,8 Baudelet Mathieu 0 Homme veteran
138 58 2:09:42 8,8 Duchene Nicolas 0 Homme senior
139 222 2:09:56 8,8 vancompernolle quentin 0 Homme senior
140 117 2:10:00 8,8 TIELEMANS Philippe 0 Homme veteran
141 380 2:10:40 8,7 Lebacq Marc 0 Homme veteran
142 99 2:10:42 8,7 Dewael philippe dewaeph Homme veteran
143 809 2:11:18 8,7 Renguet Maxime Maxime Homme senior
144 806 2:12:11 8,6 Gruielle Yannick 0 Homme veteran
145 4 2:12:19 8,6 Gypens Julien Ju Homme senior
146 138 2:12:22 8,6 Saez Herrera Luis 0 Homme veteran
147 308 2:12:38 8,6 Dusart Paul le dus Homme veteran
148 357 2:12:46 8,6 Bourez Philippe 0 Homme senior
149 31 2:12:56 8,6 Roussel Jean 0 Homme senior
150 73 2:13:00 8,6 Maillaert Yannick Lucasnina Homme veteran
151 311 2:14:32 8,5 Delhove François 0 Homme senior
152 807 2:15:21 8,4 Sydor Guy 0 Homme veteran
153 148 2:15:51 8,4 Dessart Francois 0 Homme senior
154 160 2:15:53 8,4 Vanhalle François-Xavier 0 Homme senior
155 125 2:16:28 8,4 Cornu Denis 0 Homme senior
156 293 2:17:33 8,3 Revest Pierre 0 Homme veteran
157 91 2:17:34 8,3 Durieux Alain 0 Homme veteran
158 301 2:17:35 8,3 Vanden Driesch François 0 Homme veteran
159 387 2:17:46 8,3 Deschamp Thierry 0 Homme  
160 258 2:17:54 8,3 Gheraille Jean-Marc Jean-Marc Homme veteran
161 342 2:17:58 8,3 DECHENTINNES CHRISTIAN CRI Homme veteran
162 62 2:18:08 8,3 Vanhoutte John johnjohn Homme veteran
163 393 2:18:42 8,2 Gallez Benoît 0 Homme senior
164 82 2:19:15 8,2 Massart Sebastien 0 Homme veteran
165 19 2:20:44 8,1 Druart Pascal 0 Homme veteran
166 254 2:20:54 8,1 Siragusa Salvatore Salvas73 Homme veteran
167 306 2:21:18 8,1 Bulteau Jean-Paul Papybul Homme veteran
168 121 2:21:38 8,0 Renier Pascal 0 Homme veteran
169 261 2:22:00 8,0 Magotte Olivier OM Homme veteran
170 167 2:22:08 8,0 Sonet Renaud 0 Homme veteran
171 174 2:22:10 8,0 virnino claudio 0 Homme veteran
172 39 2:22:28 8,0 Vandenberghe Yannick 0 Homme senior
173 86 2:22:53 8,0 Gillet David Crock Homme veteran
174 390 2:22:57 8,0 Evrard Johnny 0 Homme veteran
175 281 2:23:05 8,0 reyners Pascal 0 Homme veteran
176 176 2:23:15 8,0 willems Ronald 0 Homme veteran
177 332 2:23:17 8,0 DESPY Pascal 0 Homme senior
178 339 2:23:32 7,9 Vreven Laurent 0 Homme veteran
179 395 2:23:32 7,9 Dechamps David 0 Homme veteran
180 211 2:24:01 7,9 Frippiat Gaëtan 0 Homme veteran
181 266 2:24:05 7,9 pening christian 0 Homme veteran
182 273 2:24:22 7,9 VERSTICHEL Thierry 0 Homme veteran
183 307 2:24:32 7,9 Laasman Michel Mila Homme veteran
184 177 2:24:51 7,9 Lemlin Grégory 0 Homme senior
185 113 2:25:43 7,8 Kalonji Stéphane Kalonj Homme senior
186 375 2:25:49 7,8 PRIEELS Damien 0 Homme veteran
187 376 2:25:50 7,8 PRIEELS Luc d_dechamps Homme veteran
188 369 2:26:03 7,8 Vanelslander Rinus 0 Homme veteran
189 229 2:26:09 7,8 Vanblaere Frederic 0 Homme senior
190 182 2:26:16 7,8 Destenay Patrick Pat Homme veteran
191 89 2:27:51 7,7 CHAPUIS Michel 0 Homme senior
192 195 2:28:11 7,7 CLEMENT Jacques 0 Homme veteran
193 102 2:28:12 7,7 DELVAUX Alain 0 Homme veteran
194 79 2:28:30 7,7 CHELI Ivo 0 Homme veteran
195 102 2:28:37 7,7 DELVAUX Alain 0 Homme veteran
196 68 2:30:33 7,6 Kumps Fabrice le charognard Homme veteran
197 20 2:30:34 7,6 de Back Rogier 0 Homme veteran
198 295 2:30:44 7,6 Boreux Baudouin bboreux Homme veteran
199 360 2:32:06 7,5 Lehembre Rémy 0 Homme senior
200 363 2:32:07 7,5 DEVROYE Benoît 0 Homme veteran
201 1 2:33:07 7,4 VANCOLEN Yannick JAJA Homme veteran
202 313 2:33:11 7,4 Hedges Philip 0 Homme veteran
203 43 2:33:58 7,4 Sneessens Eric Eric Stim Homme veteran
204 2 2:39:15 7,2 Dominique Grégoire 0 Homme veteran
205 801 2:39:27 7,1 Faucon Francis 0 Homme veteran
206 240 2:39:50 7,1 VAN LAETHEM GUY 0 Homme veteran
207 391 2:39:51 7,1 Laurent Luc 0 Homme veteran
208 269 2:41:03 7,1 Herinckx Jerome 0 Homme senior
209 330 2:41:58 7,0 Kersten Francis Francisker Homme veteran
210 268 2:45:03 6,9 Sulej Alain 0 Homme veteran
211 345 2:48:31 6,8 Carosella Fabrice Fcaro Homme veteran
212 78 2:48:32 6,8 VANPARYS Michel 0 Homme veteran
213 157 2:49:03 6,7 De Wachter Jean-François 0 Homme veteran
214 217 2:49:20 6,7 Bontenbal Georges 0 Homme veteran
215 56 2:53:15 6,6 roland philippe billy Homme veteran
216 228 3:05:06 6,2 Badarelle Philippe 0 Homme veteran
217 128 3:10:05 6,0 Fizaine Christian CHRIS Homme veteran
218 161 3:10:07 6,0 Ruelle Marc Caribou Homme veteran
219 190 3:13:24 5,9 Volkaert Vincent vivo Homme veteran
220 215 3:25:12 5,6 Vandermeerschen Bernard 0 Homme veteran
221 127 3:27:14 5,5 Huygen Xavier Xav Homme veteran
222 312 3:39:36 5,2 michot Didier 0 Homme veteran
223 191 3:39:36 5,2 Cornelis Marc macawat Homme veteran
224 147 3:44:30 5,1 Offergeld Étienne 0 Homme veteran
225 813 3:47:30 5,0 Delos Olivier 0 Homme veteran
226 235 3:48:46 5,0 WEBER Guy 0 Homme veteran
227 366 3:58:20 4,8 Van Eeckhout Frank Frank Homme veteran
228 374 4:01:09 4,7 Di Donato Joelle Magali Homme veteran
229 180 4:10:16 4,6 Daubresse Christian 0 Homme veteran
ABANDON 26 #N/A #N/A Haentjens Laurent 0 Homme veteran
ABANDON 64 #N/A #N/A Delfosse Vincent 0 Homme veteran
ABANDON 166 #N/A #N/A Destrais Pascal PADS Homme veteran
ABANDON 230 #N/A #N/A Hofmans Philippe Phil Homme veteran
ABANDON 249 #N/A #N/A Van der Eycken Patrick 0 Homme veteran
ABANDON 272 #N/A #N/A Van Mulders Pascal 0 Homme veteran
ABANDON 347 #N/A #N/A allart david 0 Homme veteran
ABANDON 350 #N/A #N/A pierman cyril 0 Homme senior
ABANDON 372 #N/A #N/A Peeters Sébastien 0 Homme veteran